• In Hungary
  • List of Countries
  • For 7 days
  • Water Temperature
  • Satellite Maps
  • Weather Map
  • News
  • Weather Widgets
  • user-avatar
    Login

    Hourly Weather Kozlovcy

    Today, 19 June, Tuesday

    Time Temperature Precipitation Wind Pressure Humidity
    00:00 +15°C° 0 mm 1 mps 734 mmHg 93%
    01:00 +15°C° 0 mm 1 mps 734 mmHg 93%
    02:00 +14°C° 0 mm 1 mps 734 mmHg 93%
    03:00 +15°C° 0 mm 1 mps 734 mmHg 93%
    04:00 +15°C° 0 mm 2 mps 734 mmHg 92%
    05:00 +15°C° 0 mm 2 mps 734 mmHg 91%
    06:00 +17°C° 0 mm 2 mps 734 mmHg 84%
    07:00 +19°C° 0 mm 2 mps 734 mmHg 76%
    08:00 +21°C° 0 mm 2 mps 734 mmHg 68%
    09:00 +21°C° 0.2 mm 3 mps 734 mmHg 66%
    10:00 +22°C° 0.2 mm 3 mps 734 mmHg 64%
    11:00 +23°C° 0.2 mm 4 mps 734 mmHg 61%
    12:00 +23°C° 0.2 mm 4 mps 733 mmHg 56%
    13:00 +25°C° 0.2 mm 4 mps 733 mmHg 51%
    14:00 +25°C° 0.2 mm 5 mps 732 mmHg 46%
    15:00 +25°C° 0 mm 4 mps 732 mmHg 48%
    16:00 +23°C° 0 mm 4 mps 732 mmHg 50%
    17:00 +22°C° 0 mm 4 mps 731 mmHg 53%
    18:00 +21°C° 0 mm 3 mps 731 mmHg 60%
    19:00 +19°C° 0 mm 3 mps 731 mmHg 67%
    20:00 +18°C° 0 mm 3 mps 730 mmHg 74%
    21:00 +17°C° 0.1 mm 4 mps 730 mmHg 77%
    22:00 +17°C° 0.1 mm 4 mps 730 mmHg 81%
    23:00 +15°C° 0.1 mm 5 mps 730 mmHg 84%

    Tomorrow, 20 June, Wednesday

    Time Temperature Precipitation Wind Pressure Humidity
    00:00 +14°C° 0.1 mm 5 mps 730 mmHg 87%
    01:00 +12°C° 0.1 mm 4 mps 731 mmHg 89%
    02:00 +11°C° 0.1 mm 4 mps 731 mmHg 92%
    03:00 +11°C° 0 mm 4 mps 731 mmHg 90%
    04:00 +11°C° 0 mm 4 mps 732 mmHg 89%
    05:00 +10°C° 0 mm 4 mps 732 mmHg 87%
    06:00 +12°C° 0 mm 4 mps 732 mmHg 76%
    07:00 +14°C° 0 mm 5 mps 733 mmHg 65%
    08:00 +16°C° 0 mm 5 mps 733 mmHg 54%
    09:00 +17°C° 0 mm 5 mps 733 mmHg 48%
    10:00 +19°C° 0 mm 5 mps 733 mmHg 43%
    11:00 +20°C° 0 mm 6 mps 733 mmHg 37%
    12:00 +21°C° 0 mm 6 mps 733 mmHg 37%
    13:00 +21°C° 0 mm 6 mps 733 mmHg 37%
    14:00 +21°C° 0 mm 6 mps 733 mmHg 38%
    15:00 +21°C° 0 mm 6 mps 733 mmHg 40%
    16:00 +21°C° 0 mm 5 mps 733 mmHg 42%
    17:00 +20°C° 0 mm 5 mps 733 mmHg 45%
    18:00 +19°C° 0 mm 4 mps 733 mmHg 52%
    19:00 +17°C° 0 mm 3 mps 733 mmHg 59%
    20:00 +16°C° 0 mm 2 mps 733 mmHg 66%
    21:00 +15°C° 0 mm 2 mps 733 mmHg 68%
    22:00 +14°C° 0 mm 2 mps 733 mmHg 71%
    23:00 +12°C° 0 mm 2 mps 733 mmHg 73%

    Day after tomorrow, 21 June, Thursday

    Time Temperature Precipitation Wind Pressure Humidity
    00:00 +12°C° 0 mm 2 mps 733 mmHg 73%
    01:00 +10°C° 0 mm 2 mps 734 mmHg 74%
    02:00 +9°C° 0 mm 2 mps 734 mmHg 74%
    03:00 +10°C° 0 mm 2 mps 734 mmHg 72%
    04:00 +10°C° 0 mm 2 mps 734 mmHg 70%
    05:00 +12°C° 0 mm 2 mps 734 mmHg 68%
    06:00 +12°C° 0 mm 3 mps 734 mmHg 65%
    07:00 +13°C° 0 mm 3 mps 734 mmHg 62%
    08:00 +14°C° 0 mm 3 mps 734 mmHg 59%
    09:00 +16°C° 0 mm 3 mps 734 mmHg 59%
    10:00 +17°C° 0 mm 4 mps 733 mmHg 59%
    11:00 +18°C° 0 mm 4 mps 733 mmHg 59%
    12:00 +18°C° 0 mm 4 mps 733 mmHg 60%
    13:00 +19°C° 0 mm 4 mps 733 mmHg 61%
    14:00 +19°C° 0 mm 4 mps 733 mmHg 62%
    15:00 +20°C° 0 mm 4 mps 733 mmHg 62%
    16:00 +21°C° 0 mm 3 mps 733 mmHg 62%
    17:00 +21°C° 0 mm 3 mps 732 mmHg 63%
    18:00 +20°C° 0 mm 2 mps 732 mmHg 71%
    19:00 +19°C° 0 mm 2 mps 732 mmHg 79%
    20:00 +19°C° 0 mm 1 mps 732 mmHg 88%
    21:00 +17°C° 0 mm 2 mps 732 mmHg 91%
    22:00 +16°C° 0 mm 2 mps 732 mmHg 93%
    23:00 +15°C° 0 mm 2 mps 731 mmHg 96%

    22 June, Friday

    Time Temperature Precipitation Wind Pressure Humidity
    00:00 +15°C° 0 mm 2 mps 731 mmHg 96%
    01:00 +14°C° 0 mm 3 mps 731 mmHg 96%
    02:00 +14°C° 0 mm 3 mps 730 mmHg 96%
    03:00 +16°C° 0 mm 3 mps 730 mmHg 91%
    04:00 +17°C° 0 mm 4 mps 729 mmHg 86%
    05:00 +16°C° 0 mm 5 mps 729 mmHg 81%
    06:00 +19°C° 0 mm 5 mps 728 mmHg 74%
    07:00 +21°C° 0 mm 6 mps 728 mmHg 66%
    08:00 +22°C° 0 mm 6 mps 727 mmHg 59%
    09:00 +23°C° 0 mm 6 mps 727 mmHg 60%
    10:00 +23°C° 0 mm 6 mps 727 mmHg 60%
    11:00 +24°C° 0 mm 7 mps 726 mmHg 61%
    12:00 +23°C° 0.7 mm 6 mps 726 mmHg 67%
    13:00 +22°C° 0.7 mm 6 mps 726 mmHg 74%
    14:00 +21°C° 0.7 mm 5 mps 727 mmHg 81%
    15:00 +19°C° 1.8 mm 5 mps 727 mmHg 86%
    16:00 +17°C° 1.8 mm 4 mps 727 mmHg 90%
    17:00 +14°C° 1.8 mm 3 mps 727 mmHg 94%
    18:00 +13°C° 0.3 mm 3 mps 728 mmHg 95%
    19:00 +13°C° 0.3 mm 2 mps 728 mmHg 95%
    20:00 +12°C° 0.3 mm 2 mps 729 mmHg 95%
    21:00 +12°C° 0 mm 2 mps 729 mmHg 95%
    22:00 +12°C° 0 mm 2 mps 729 mmHg 96%
    23:00 +12°C° 0 mm 2 mps 730 mmHg 96%

    23 June, Saturday

    Time Temperature Precipitation Wind Pressure Humidity
    00:00 +12°C° 0 mm 2 mps 730 mmHg 96%
    01:00 +12°C° 0 mm 2 mps 730 mmHg 97%
    02:00 +12°C° 0 mm 2 mps 730 mmHg 97%
    03:00 +12°C° 0.1 mm 1 mps 730 mmHg 97%
    04:00 +12°C° 0.1 mm 1 mps 730 mmHg 97%
    05:00 +12°C° 0.1 mm 1 mps 730 mmHg 98%
    06:00 +12°C° 0.1 mm 1 mps 730 mmHg 97%
    07:00 +12°C° 0.1 mm 1 mps 731 mmHg 97%
    08:00 +12°C° 0.1 mm 1 mps 731 mmHg 97%
    09:00 +13°C° 0.2 mm 1 mps 731 mmHg 97%
    10:00 +13°C° 0.2 mm 1 mps 731 mmHg 96%
    11:00 +13°C° 0.2 mm 1 mps 731 mmHg 96%
    12:00 +13°C° 0.4 mm 1 mps 731 mmHg 96%
    13:00 +13°C° 0.4 mm 1 mps 731 mmHg 96%
    14:00 +13°C° 0.4 mm 1 mps 731 mmHg 96%
    15:00 +12°C° 0.4 mm 1 mps 731 mmHg 96%
    16:00 +12°C° 0.4 mm 1 mps 731 mmHg 96%
    17:00 +12°C° 0.4 mm 1 mps 731 mmHg 96%
    18:00 +12°C° 0.1 mm 1 mps 731 mmHg 96%
    19:00 +12°C° 0.1 mm 1 mps 731 mmHg 96%
    20:00 +11°C° 0.1 mm 1 mps 731 mmHg 96%
    21:00 +11°C° 0.2 mm 1 mps 730 mmHg 97%
    22:00 +11°C° 0.2 mm 1 mps 730 mmHg 97%
    23:00 +11°C° 0.2 mm 1 mps 730 mmHg 98%

    24 June, Sunday

    Time Temperature Precipitation Wind Pressure Humidity
    00:00 +10°C° 0.6 mm 1 mps 730 mmHg 98%
    01:00 +10°C° 0.6 mm 1 mps 730 mmHg 98%
    02:00 +10°C° 0.6 mm 1 mps 730 mmHg 98%
    03:00 +10°C° 0.2 mm 1 mps 730 mmHg 97%
    04:00 +10°C° 0.2 mm 1 mps 730 mmHg 97%
    05:00 +11°C° 0.2 mm 1 mps 730 mmHg 97%
    06:00 +12°C° 0.1 mm 1 mps 730 mmHg 91%
    07:00 +14°C° 0.1 mm 2 mps 730 mmHg 86%
    08:00 +15°C° 0.1 mm 2 mps 731 mmHg 80%
    09:00 +16°C° 0.2 mm 2 mps 731 mmHg 72%
    10:00 +17°C° 0.2 mm 2 mps 731 mmHg 63%
    11:00 +19°C° 0.2 mm 3 mps 731 mmHg 54%
    12:00 +19°C° 0.2 mm 3 mps 731 mmHg 54%
    13:00 +19°C° 0.2 mm 3 mps 731 mmHg 53%
    14:00 +19°C° 0.2 mm 3 mps 732 mmHg 53%
    15:00 +19°C° 0.2 mm 3 mps 732 mmHg 57%
    16:00 +19°C° 0.2 mm 2 mps 732 mmHg 61%
    17:00 +18°C° 0.2 mm 2 mps 732 mmHg 65%
    18:00 +17°C° 0 mm 2 mps 733 mmHg 72%
    19:00 +15°C° 0 mm 2 mps 733 mmHg 79%
    20:00 +14°C° 0 mm 1 mps 733 mmHg 86%
    21:00 +13°C° 0 mm 1 mps 733 mmHg 89%
    22:00 +12°C° 0 mm 1 mps 734 mmHg 93%
    23:00 +11°C° 0 mm 1 mps 734 mmHg 96%
    Show more